| time (UTC) | temp C | wind direction | speed KPH | gust KPH | rain 1hr cm | rain 24hr cm | rain mn cm | humidity % | barometer mb |
| 20260906093122 | 20 | 194 | 0.0 | 3.2 | 0.00 | 0.23 | 0.00 | 94 | 1011.5 |
| 20260906092540 | 20 | 0 | 0.0 | 3.2 | 0.00 | 0.23 | 0.00 | 94 | 1011.5 |
| 20260906092040 | 20 | 194 | 1.6 | 1.6 | 0.00 | 0.23 | 0.00 | 94 | 1011.5 |
| 20260906091609 | 20 | 194 | 1.6 | 3.2 | 0.00 | 0.23 | 0.00 | 94 | 1011.4 |
| 20260906091040 | 20 | 194 | 1.6 | 3.2 | 0.00 | 0.23 | 0.00 | 94 | 1011.5 |
| 20260906090540 | 20 | 194 | 1.6 | 3.2 | 0.00 | 0.23 | 0.00 | 94 | 1011.4 |
| 20260906085539 | 20 | 202 | 1.6 | 3.2 | 0.00 | 0.23 | 0.00 | 94 | 1011.4 |
| 20260906085039 | 20 | 223 | 0.0 | 3.2 | 0.00 | 0.23 | 0.00 | 93 | 1011.4 |
| 20260906084554 | 20 | 223 | 1.6 | 3.2 | 0.00 | 0.23 | 0.00 | 94 | 1011.4 |
| 20260906084043 | 20 | 223 | 0.0 | 1.6 | 0.00 | 0.23 | 0.00 | 94 | 1011.3 |
| 20260906083542 | 20 | 0 | 0.0 | 3.2 | 0.00 | 0.23 | 0.00 | 93 | 1011.2 |
| 20260906083101 | 20 | 0 | 0.0 | 3.2 | 0.00 | 0.23 | 0.00 | 94 | 1011.3 |
| 20260906082540 | 20 | 223 | 1.6 | 3.2 | 0.00 | 0.23 | 0.00 | 94 | 1011.2 |
| 20260906082040 | 20 | 223 | 0.0 | 3.2 | 0.00 | 0.23 | 0.00 | 93 | 1011.2 |
| 20260906081557 | 20 | 0 | 0.0 | 0.0 | 0.00 | 0.23 | 0.00 | 94 | 1011.0 |
| 20260906081040 | 20 | 0 | 0.0 | 3.2 | 0.00 | 0.23 | 0.00 | 94 | 1010.9 |
| 20260906080540 | 20 | 0 | 0.0 | 3.2 | 0.00 | 0.23 | 0.00 | 93 | 1010.7 |
| 20260906075539 | 20 | 202 | 0.0 | 3.2 | 0.00 | 0.23 | 0.00 | 93 | 1010.8 |
| 20260906075039 | 20 | 0 | 0.0 | 3.2 | 0.00 | 0.23 | 0.00 | 93 | 1010.8 |
| 20260906074558 | 20 | 0 | 0.0 | 3.2 | 0.00 | 0.23 | 0.00 | 93 | 1010.9 |
| 20260906074039 | 20 | 193 | 0.0 | 3.2 | 0.00 | 0.23 | 0.00 | 93 | 1010.9 |
| 20260906073540 | 20 | 0 | 0.0 | 3.2 | 0.00 | 0.23 | 0.00 | 94 | 1010.8 |
| 20260906073053 | 20 | 0 | 0.0 | 3.2 | 0.00 | 0.23 | 0.00 | 93 | 1010.8 |
| 20260906072540 | 20 | 0 | 0.0 | 3.2 | 0.00 | 0.23 | 0.00 | 93 | 1010.8 |
| 20260906072040 | 20 | 193 | 0.0 | 3.2 | 0.00 | 0.23 | 0.00 | 93 | 1011.0 |
| 20260906071555 | 20 | 0 | 0.0 | 3.2 | 0.00 | 0.23 | 0.00 | 93 | 1011.0 |
| 20260906071040 | 20 | 238 | 0.0 | 3.2 | 0.00 | 0.23 | 0.00 | 93 | 1011.0 |
| 20260906070540 | 20 | 238 | 1.6 | 3.2 | 0.00 | 0.23 | 0.00 | 93 | 1011.0 |
| 20260906070053 | 20 | 233 | 1.6 | 3.2 | 0.00 | 0.23 | 0.00 | 93 | 1010.9 |
| 20260906065540 | 20 | 215 | 1.6 | 3.2 | 0.00 | 0.23 | 0.00 | 93 | 1010.9 |
| 20260906065039 | 20 | 159 | 0.0 | 3.2 | 0.00 | 0.23 | 0.00 | 93 | 1010.9 |
| 20260906064557 | 20 | 0 | 0.0 | 3.2 | 0.00 | 0.23 | 0.00 | 93 | 1010.9 |
| 20260906064039 | 20 | 159 | 1.6 | 3.2 | 0.00 | 0.23 | 0.00 | 93 | 1011.0 |
| 20260906063540 | 20 | 223 | 0.0 | 3.2 | 0.00 | 0.23 | 0.00 | 93 | 1011.1 |
| 20260906063057 | 20 | 223 | 1.6 | 1.6 | 0.00 | 0.23 | 0.00 | 93 | 1011.2 |
| 20260906062540 | 21 | 223 | 0.0 | 3.2 | 0.00 | 0.23 | 0.00 | 93 | 1011.2 |
| 20260906062039 | 21 | 247 | 0.0 | 3.2 | 0.00 | 0.23 | 0.00 | 93 | 1011.1 |
| 20260906061554 | 21 | 247 | 0.0 | 3.2 | 0.00 | 0.23 | 0.00 | 93 | 1011.1 |
| 20260906061039 | 20 | 0 | 0.0 | 3.2 | 0.00 | 0.23 | 0.00 | 93 | 1011.1 |
| 20260906060540 | 21 | 0 | 0.0 | 3.2 | 0.00 | 0.23 | 0.00 | 93 | 1011.2 |
| 20260906060057 | 20 | 247 | 0.0 | 3.2 | 0.00 | 0.23 | 0.00 | 92 | 1011.1 |
| 20260906055543 | 21 | 0 | 0.0 | 3.2 | 0.00 | 0.23 | 0.00 | 92 | 1011.4 |
| 20260906055040 | 21 | 247 | 0.0 | 3.2 | 0.00 | 0.23 | 0.00 | 92 | 1011.4 |
| 20260906054608 | 21 | 0 | 0.0 | 3.2 | 0.00 | 0.23 | 0.00 | 93 | 1011.5 |
| 20260906054040 | 21 | 0 | 0.0 | 3.2 | 0.00 | 0.23 | 0.00 | 92 | 1011.5 |
| 20260906053539 | 21 | 0 | 0.0 | 3.2 | 0.00 | 0.23 | 0.00 | 92 | 1011.6 |
| 20260906053054 | 21 | 246 | 0.0 | 3.2 | 0.00 | 0.23 | 0.00 | 92 | 1011.6 |
| 20260906052540 | 21 | 0 | 0.0 | 1.6 | 0.00 | 0.23 | 0.00 | 92 | 1011.7 |
| 20260906052044 | 21 | 246 | 1.6 | 1.6 | 0.00 | 0.23 | 0.00 | 92 | 1011.7 |
| 20260906051603 | 21 | 246 | 0.0 | 3.2 | 0.00 | 0.23 | 0.00 | 92 | 1011.8 |
| 20260906051040 | 21 | 333 | 0.0 | 3.2 | 0.00 | 0.23 | 0.00 | 92 | 1011.8 |
| 20260906050540 | 21 | 333 | 0.0 | 3.2 | 0.00 | 0.23 | 0.00 | 92 | 1011.9 |
| 20260906050105 | 21 | 333 | 0.0 | 3.2 | 0.00 | 0.23 | 0.00 | 92 | 1011.9 |
| 20260906045540 | 21 | 0 | 0.0 | 0.0 | 0.00 | 0.23 | 0.00 | 92 | 1011.8 |
| 20260906045041 | 21 | 0 | 0.0 | 0.0 | 0.00 | 0.23 | 0.00 | 92 | 1011.9 |
| 20260906044602 | 21 | 0 | 0.0 | 3.2 | 0.00 | 0.23 | 0.00 | 92 | 1011.9 |
| 20260906044039 | 21 | 0 | 0.0 | 3.2 | 0.00 | 0.23 | 0.00 | 91 | 1011.9 |
| 20260906043542 | 21 | 0 | 0.0 | 3.2 | 0.00 | 0.23 | 0.00 | 91 | 1012.0 |
| 20260906043104 | 21 | 333 | 0.0 | 3.2 | 0.00 | 0.23 | 0.00 | 92 | 1012.0 |
| 20260906042540 | 21 | 333 | 1.6 | 1.6 | 0.00 | 0.23 | 0.00 | 92 | 1012.0 |
| 20260906042040 | 21 | 281 | 0.0 | 1.6 | 0.00 | 0.23 | 0.00 | 91 | 1012.1 |
| 20260906041555 | 21 | 281 | 1.6 | 3.2 | 0.00 | 0.23 | 0.00 | 91 | 1012.0 |
| 20260906041040 | 22 | 263 | 0.0 | 3.2 | 0.00 | 0.23 | 0.00 | 91 | 1012.0 |
| 20260906040540 | 22 | 263 | 0.0 | 3.2 | 0.00 | 0.23 | 0.00 | 90 | 1012.1 |
| 20260906040105 | 22 | 263 | 0.0 | 3.2 | 0.00 | 0.23 | 0.00 | 88 | 1012.2 |
| 20260906035541 | 22 | 263 | 0.0 | 3.2 | 0.00 | 0.23 | 0.23 | 89 | 1012.2 |
| 20260906035040 | 22 | 0 | 0.0 | 3.2 | 0.00 | 0.23 | 0.23 | 90 | 1012.1 |
| 20260906034553 | 22 | 0 | 0.0 | 3.2 | 0.00 | 0.23 | 0.23 | 90 | 1012.1 |
| 20260906034039 | 22 | 258 | 0.0 | 3.2 | 0.00 | 0.23 | 0.23 | 90 | 1012.2 |
| 20260906033539 | 22 | 258 | 0.0 | 3.2 | 0.00 | 0.23 | 0.23 | 90 | 1012.2 |
| 20260906033051 | 22 | 0 | 0.0 | 3.2 | 0.00 | 0.23 | 0.23 | 89 | 1012.2 |
| 20260906032540 | 22 | 0 | 0.0 | 3.2 | 0.00 | 0.23 | 0.23 | 91 | 1012.3 |
| 20260906032040 | 22 | 275 | 0.0 | 3.2 | 0.00 | 0.23 | 0.23 | 92 | 1012.3 |
| 20260906031551 | 22 | 0 | 0.0 | 3.2 | 0.00 | 0.23 | 0.23 | 93 | 1012.3 |
| 20260906031041 | 22 | 0 | 0.0 | 3.2 | 0.00 | 0.23 | 0.23 | 93 | 1012.3 |
| 20260906030540 | 22 | 278 | 0.0 | 3.2 | 0.00 | 0.23 | 0.23 | 92 | 1012.3 |
| 20260906025540 | 22 | 0 | 0.0 | 3.2 | 0.00 | 0.23 | 0.23 | 92 | 1012.1 |
| 20260906025040 | 22 | 278 | 0.0 | 3.2 | 0.00 | 0.23 | 0.23 | 92 | 1012.0 |
| 20260906024558 | 22 | 278 | 1.6 | 3.2 | 0.00 | 0.23 | 0.23 | 92 | 1012.0 |
| 20260906024039 | 22 | 278 | 0.0 | 3.2 | 0.00 | 0.23 | 0.23 | 92 | 1012.0 |
| 20260906023540 | 22 | 278 | 0.0 | 3.2 | 0.00 | 0.23 | 0.23 | 92 | 1012.0 |
| 20260906023054 | 22 | 278 | 0.0 | 3.2 | 0.00 | 0.23 | 0.23 | 92 | 1012.0 |
| 20260906022539 | 22 | 278 | 0.0 | 3.2 | 0.00 | 0.23 | 0.23 | 92 | 1012.0 |
| 20260906022039 | 22 | 278 | 1.6 | 1.6 | 0.00 | 0.23 | 0.23 | 92 | 1012.0 |
| 20260906021556 | 22 | 278 | 0.0 | 1.6 | 0.00 | 0.23 | 0.23 | 91 | 1012.1 |
| 20260906021041 | 22 | 250 | 1.6 | 1.6 | 0.00 | 0.23 | 0.23 | 91 | 1012.1 |
| 20260906020540 | 22 | 132 | 1.6 | 3.2 | 0.00 | 0.23 | 0.23 | 91 | 1012.1 |
| 20260906020059 | 22 | 132 | 0.0 | 3.2 | 0.00 | 0.23 | 0.23 | 91 | 1012.1 |
| 20260906015539 | 22 | 0 | 0.0 | 3.2 | 0.00 | 0.23 | 0.23 | 91 | 1012.0 |
| 20260906015040 | 22 | 132 | 0.0 | 3.2 | 0.00 | 0.23 | 0.23 | 91 | 1012.1 |
| 20260906014633 | 22 | 0 | 0.0 | 3.2 | 0.00 | 0.23 | 0.23 | 91 | 1012.1 |
| 20260906014039 | 22 | 0 | 0.0 | 3.2 | 0.00 | 0.23 | 0.23 | 90 | 1012.1 |
| 20260906013539 | 22 | 0 | 0.0 | 3.2 | 0.00 | 0.23 | 0.23 | 90 | 1012.1 |
| 20260906013101 | 22 | 157 | 0.0 | 3.2 | 0.00 | 0.23 | 0.23 | 91 | 1012.1 |
| 20260906012540 | 23 | 0 | 0.0 | 3.2 | 0.00 | 0.23 | 0.23 | 91 | 1012.1 |
| 20260906012042 | 23 | 155 | 0.0 | 3.2 | 0.00 | 0.23 | 0.23 | 91 | 1012.0 |
| 20260906011605 | 23 | 155 | 0.0 | 4.8 | 0.00 | 0.23 | 0.23 | 91 | 1012.0 |
| 20260906011039 | 23 | 163 | 1.6 | 4.8 | 0.00 | 0.23 | 0.23 | 92 | 1011.9 |
| 20260906010539 | 23 | 203 | 1.6 | 4.8 | 0.00 | 0.23 | 0.23 | 92 | 1011.8 |
| 20260906010057 | 23 | 193 | 1.6 | 4.8 | 0.00 | 0.23 | 0.23 | 92 | 1011.8 |
| 20260906005540 | 23 | 168 | 0.0 | 3.2 | 0.00 | 0.23 | 0.23 | 92 | 1011.9 |
| 20260906005039 | 23 | 168 | 0.0 | 3.2 | 0.00 | 0.23 | 0.23 | 92 | 1011.8 |
| 20260906004615 | 23 | 176 | 0.0 | 1.6 | 0.00 | 0.23 | 0.23 | 92 | 1011.8 |
| 20260906004041 | 23 | 176 | 0.0 | 4.8 | 0.00 | 0.23 | 0.23 | 92 | 1011.7 |
| 20260906003540 | 23 | 176 | 1.6 | 4.8 | 0.00 | 0.23 | 0.23 | 92 | 1011.5 |
| 20260906003112 | 23 | 191 | 1.6 | 3.2 | 0.00 | 0.23 | 0.23 | 92 | 1011.5 |
| 20260906002540 | 23 | 211 | 1.6 | 3.2 | 0.00 | 0.23 | 0.23 | 91 | 1011.4 |
| 20260906002040 | 23 | 259 | 1.6 | 3.2 | 0.00 | 0.23 | 0.23 | 91 | 1011.5 |
| 20260906001557 | 23 | 259 | 0.0 | 3.2 | 0.00 | 0.23 | 0.23 | 90 | 1011.4 |
| 20260906001039 | 23 | 259 | 0.0 | 3.2 | 0.00 | 0.23 | 0.23 | 90 | 1011.3 |
| 20260906000545 | 24 | 0 | 0.0 | 0.0 | 0.00 | 0.23 | 0.23 | 90 | 1011.2 |
| 20260906000056 | 24 | 0 | 0.0 | 3.2 | 0.00 | 0.23 | 0.23 | 89 | 1011.1 |
| 20260905235542 | 24 | 0 | 0.0 | 3.2 | 0.00 | 0.23 | 0.23 | 89 | 1011.0 |
| 20260905235040 | 24 | 352 | 0.0 | 1.6 | 0.00 | 0.23 | 0.23 | 89 | 1011.0 |
| 20260905234554 | 24 | 0 | 0.0 | 0.0 | 0.00 | 0.23 | 0.23 | 88 | 1010.8 |
| 20260905234040 | 25 | 0 | 0.0 | 1.6 | 0.00 | 0.23 | 0.23 | 88 | 1010.7 |
| 20260905233540 | 25 | 0 | 0.0 | 3.2 | 0.00 | 0.23 | 0.23 | 87 | 1010.7 |
| 20260905233059 | 25 | 352 | 0.0 | 3.2 | 0.00 | 0.23 | 0.23 | 86 | 1010.7 |
| 20260905232539 | 25 | 352 | 0.0 | 1.6 | 0.00 | 0.23 | 0.23 | 85 | 1010.7 |
| 20260905232040 | 25 | 0 | 0.0 | 3.2 | 0.00 | 0.23 | 0.23 | 85 | 1010.7 |
| 20260905231554 | 25 | 0 | 0.0 | 3.2 | 0.00 | 0.23 | 0.23 | 85 | 1010.7 |
| 20260905231039 | 25 | 93 | 0.0 | 3.2 | 0.00 | 0.23 | 0.23 | 85 | 1010.8 |
| 20260905230539 | 25 | 93 | 1.6 | 3.2 | 0.00 | 0.23 | 0.23 | 85 | 1010.9 |
| 20260905230109 | 25 | 168 | 0.0 | 3.2 | 0.00 | 0.23 | 0.23 | 85 | 1010.8 |
| 20260905225539 | 25 | 102 | 0.0 | 3.2 | 0.00 | 0.23 | 0.23 | 85 | 1010.9 |
| 20260905225041 | 25 | 98 | 1.6 | 3.2 | 0.00 | 0.23 | 0.23 | 85 | 1010.9 |
| 20260905224604 | 25 | 73 | 1.6 | 4.8 | 0.00 | 0.23 | 0.23 | 85 | 1010.9 |
| 20260905224040 | 26 | 182 | 0.0 | 4.8 | 0.00 | 0.23 | 0.23 | 84 | 1010.8 |
| 20260905223539 | 26 | 182 | 1.6 | 4.8 | 0.00 | 0.23 | 0.23 | 82 | 1010.7 |
| 20260905223101 | 26 | 113 | 1.6 | 4.8 | 0.00 | 0.23 | 0.23 | 80 | 1010.6 |
| 20260905222540 | 27 | 77 | 0.0 | 4.8 | 0.00 | 0.23 | 0.23 | 76 | 1010.5 |
| 20260905222039 | 27 | 346 | 1.6 | 4.8 | 0.00 | 0.23 | 0.23 | 71 | 1010.5 |
| 20260905221611 | 27 | 59 | 0.0 | 3.2 | 0.00 | 0.23 | 0.23 | 79 | 1010.5 |
| 20260905221040 | 27 | 44 | 1.6 | 3.2 | 0.00 | 0.23 | 0.23 | 79 | 1010.5 |
| 20260905220539 | 26 | 352 | 0.0 | 3.2 | 0.00 | 0.23 | 0.23 | 81 | 1010.6 |
| 20260905220057 | 26 | 352 | 0.0 | 3.2 | 0.00 | 0.23 | 0.23 | 82 | 1010.6 |
| 20260905215540 | 26 | 0 | 0.0 | 3.2 | 0.00 | 0.23 | 0.23 | 80 | 1010.7 |
| 20260905215039 | 26 | 352 | 0.0 | 3.2 | 0.00 | 0.23 | 0.23 | 80 | 1010.7 |
| 20260905214603 | 26 | 317 | 0.0 | 3.2 | 0.00 | 0.23 | 0.23 | 80 | 1010.7 |
| 20260905214040 | 26 | 317 | 0.0 | 3.2 | 0.00 | 0.23 | 0.23 | 84 | 1010.8 |
| 20260905213540 | 26 | 311 | 0.0 | 3.2 | 0.00 | 0.23 | 0.23 | 81 | 1010.9 |
| 20260905213102 | 25 | 311 | 1.6 | 3.2 | 0.00 | 0.23 | 0.23 | 81 | 1011.1 |
| 20260905212540 | 25 | 323 | 1.6 | 3.2 | 0.00 | 0.23 | 0.23 | 82 | 1011.3 |
| 20260905212039 | 25 | 290 | 0.0 | 3.2 | 0.00 | 0.23 | 0.23 | 85 | 1011.4 |
| 20260905211601 | 25 | 169 | 1.6 | 3.2 | 0.00 | 0.23 | 0.23 | 87 | 1011.3 |
| 20260905211039 | 25 | 0 | 0.0 | 4.8 | 0.00 | 0.23 | 0.23 | 87 | 1011.4 |
| 20260905210539 | 25 | 300 | 1.6 | 4.8 | 0.00 | 0.23 | 0.23 | 86 | 1011.5 |
| 20260905210057 | 25 | 295 | 0.0 | 3.2 | 0.00 | 0.23 | 0.23 | 86 | 1011.5 |
| 20260905205539 | 24 | 313 | 0.0 | 3.2 | 0.00 | 0.23 | 0.23 | 88 | 1011.5 |
| 20260905205039 | 24 | 0 | 0.0 | 3.2 | 0.00 | 0.23 | 0.23 | 87 | 1011.3 |
| 20260905204557 | 25 | 313 | 1.6 | 3.2 | 0.00 | 0.23 | 0.23 | 87 | 1011.4 |
| 20260905204040 | 25 | 304 | 1.6 | 3.2 | 0.00 | 0.23 | 0.23 | 85 | 1011.3 |
| 20260905203540 | 25 | 37 | 0.0 | 3.2 | 0.00 | 0.23 | 0.23 | 89 | 1011.2 |
| 20260905203056 | 24 | 0 | 0.0 | 3.2 | 0.00 | 0.23 | 0.23 | 88 | 1011.0 |
| 20260905202539 | 24 | 37 | 0.0 | 4.8 | 0.00 | 0.23 | 0.23 | 86 | 1010.9 |
| 20260905202039 | 25 | 352 | 1.6 | 4.8 | 0.00 | 0.23 | 0.23 | 86 | 1010.9 |
| 20260905201610 | 24 | 309 | 3.2 | 4.8 | 0.08 | 0.23 | 0.23 | 85 | 1010.8 |
| 20260905201039 | 24 | 286 | 3.2 | 4.8 | 0.23 | 0.23 | 0.23 | 85 | 1010.8 |
| 20260905200540 | 24 | 319 | 1.6 | 4.8 | 0.23 | 0.23 | 0.23 | 86 | 1010.9 |
| 20260905200054 | 24 | 5 | 3.2 | 4.8 | 0.23 | 0.23 | 0.23 | 85 | 1011.1 |
| 20260905195539 | 24 | 287 | 1.6 | 8.0 | 0.23 | 0.23 | 0.23 | 84 | 1011.0 |
| 20260905195040 | 23 | 285 | 3.2 | 8.0 | 0.23 | 0.23 | 0.23 | 85 | 1010.9 |
| 20260905194558 | 23 | 298 | 3.2 | 9.7 | 0.23 | 0.23 | 0.23 | 85 | 1011.1 |
| 20260905194042 | 23 | 336 | 1.6 | 9.7 | 0.23 | 0.23 | 0.23 | 86 | 1011.1 |
| 20260905193540 | 23 | 325 | 3.2 | 8.0 | 0.23 | 0.23 | 0.23 | 85 | 1011.1 |
| 20260905193112 | 23 | 352 | 1.6 | 16.1 | 0.23 | 0.23 | 0.23 | 84 | 1011.0 |
| 20260905192540 | 23 | 58 | 1.6 | 16.1 | 0.23 | 0.23 | 0.23 | 83 | 1011.1 |
| 20260905192042 | 24 | 125 | 6.4 | 16.1 | 0.23 | 0.23 | 0.23 | 77 | 1011.2 |
| 20260905191554 | 26 | 57 | 6.4 | 35.4 | 0.15 | 0.15 | 0.15 | 69 | 1010.9 |
| 20260905191039 | 28 | 158 | 14.5 | 41.8 | 0.00 | 0.00 | 0.00 | 59 | 1011.7 |
| 20260905190541 | 30 | 77 | 12.9 | 41.8 | 0.00 | 0.00 | 0.00 | 55 | 1012.1 |
| 20260905190058 | 33 | 58 | 16.1 | 40.2 | 0.00 | 0.00 | 0.00 | 49 | 1011.5 |
| 20260905185540 | 34 | 338 | 6.4 | 12.9 | 0.00 | 0.00 | 0.00 | 48 | 1011.0 |
| 20260905185040 | 35 | 335 | 4.8 | 16.1 | 0.00 | 0.00 | 0.00 | 48 | 1010.9 |
| 20260905184556 | 35 | 5 | 8.0 | 16.1 | 0.00 | 0.00 | 0.00 | 48 | 1010.8 |
| 20260905184039 | 35 | 5 | 8.0 | 17.7 | 0.00 | 0.00 | 0.00 | 46 | 1010.9 |
| 20260905183540 | 36 | 327 | 9.7 | 19.3 | 0.00 | 0.00 | 0.00 | 44 | 1010.9 |
| 20260905183058 | 36 | 322 | 9.7 | 19.3 | 0.00 | 0.00 | 0.00 | 46 | 1010.8 |
| 20260905182539 | 36 | 311 | 8.0 | 19.3 | 0.00 | 0.00 | 0.00 | 47 | 1010.8 |
| 20260905182039 | 36 | 352 | 8.0 | 19.3 | 0.00 | 0.00 | 0.00 | 48 | 1010.8 |
| 20260905181606 | 36 | 315 | 8.0 | 16.1 | 0.00 | 0.00 | 0.00 | 49 | 1010.9 |
| 20260905181040 | 36 | 49 | 9.7 | 14.5 | 0.00 | 0.00 | 0.00 | 47 | 1011.0 |
| 20260905180540 | 35 | 38 | 1.6 | 8.0 | 0.00 | 0.00 | 0.00 | 49 | 1011.2 |
| 20260905180104 | 35 | 14 | 6.4 | 11.3 | 0.00 | 0.00 | 0.00 | 51 | 1011.3 |
| 20260905175540 | 35 | 302 | 4.8 | 19.3 | 0.00 | 0.00 | 0.00 | 52 | 1011.5 |
| 20260905175040 | 35 | 360 | 8.0 | 19.3 | 0.00 | 0.00 | 0.00 | 50 | 1011.6 |
| 20260905174604 | 35 | 0 | 4.8 | 14.5 | 0.00 | 0.00 | 0.00 | 49 | 1011.8 |
| 20260905174039 | 35 | 311 | 6.4 | 11.3 | 0.00 | 0.00 | 0.00 | 51 | 1011.8 |
| 20260905173539 | 34 | 5 | 3.2 | 12.9 | 0.00 | 0.00 | 0.00 | 53 | 1012.0 |
| 20260905173054 | 34 | 310 | 8.0 | 12.9 | 0.00 | 0.00 | 0.00 | 52 | 1012.1 |
| 20260905172539 | 35 | 360 | 6.4 | 12.9 | 0.00 | 0.00 | 0.00 | 48 | 1012.2 |
| 20260905172039 | 35 | 238 | 4.8 | 12.9 | 0.00 | 0.00 | 0.00 | 50 | 1012.3 |
| 20260905171558 | 35 | 315 | 3.2 | 9.7 | 0.00 | 0.00 | 0.00 | 52 | 1012.3 |
| 20260905171044 | 35 | 20 | 4.8 | 14.5 | 0.00 | 0.00 | 0.00 | 51 | 1012.2 |
| 20260905170539 | 35 | 63 | 4.8 | 17.7 | 0.00 | 0.00 | 0.00 | 49 | 1012.3 |
| 20260905170055 | 35 | 298 | 8.0 | 17.7 | 0.00 | 0.00 | 0.00 | 49 | 1012.4 |
| 20260905165539 | 35 | 335 | 1.6 | 11.3 | 0.00 | 0.00 | 0.00 | 51 | 1012.6 |
| 20260905165038 | 35 | 349 | 6.4 | 11.3 | 0.00 | 0.00 | 0.00 | 51 | 1012.6 |
| 20260905164554 | 34 | 342 | 1.6 | 11.3 | 0.00 | 0.00 | 0.00 | 53 | 1012.7 |
| 20260905164039 | 34 | 315 | 6.4 | 14.5 | 0.00 | 0.00 | 0.00 | 52 | 1012.7 |
| 20260905163539 | 34 | 315 | 4.8 | 14.5 | 0.00 | 0.00 | 0.00 | 54 | 1012.8 |
| 20260905163101 | 34 | 309 | 1.6 | 6.4 | 0.00 | 0.00 | 0.00 | 54 | 1012.8 |
| 20260905162539 | 33 | 296 | 3.2 | 12.9 | 0.00 | 0.00 | 0.00 | 52 | 1012.9 |
| 20260905162040 | 34 | 333 | 4.8 | 12.9 | 0.00 | 0.00 | 0.00 | 54 | 1013.0 |
| 20260905161604 | 33 | 309 | 4.8 | 12.9 | 0.00 | 0.00 | 0.00 | 55 | 1013.1 |
| 20260905161040 | 33 | 240 | 4.8 | 12.9 | 0.00 | 0.00 | 0.00 | 57 | 1013.1 |
| 20260905160538 | 33 | 93 | 1.6 | 11.3 | 0.00 | 0.00 | 0.00 | 59 | 1013.1 |
| 20260905160057 | 33 | 238 | 4.8 | 11.3 | 0.00 | 0.00 | 0.00 | 59 | 1013.2 |
| 20260905155539 | 33 | 302 | 4.8 | 9.7 | 0.00 | 0.00 | 0.00 | 62 | 1013.3 |
| 20260905155039 | 33 | 211 | 4.8 | 8.0 | 0.00 | 0.00 | 0.00 | 58 | 1013.2 |
| 20260905154617 | 33 | 223 | 3.2 | 8.0 | 0.00 | 0.00 | 0.00 | 62 | 1013.2 |
| 20260905154041 | 32 | 228 | 1.6 | 11.3 | 0.00 | 0.00 | 0.00 | 61 | 1013.3 |
| 20260905153539 | 32 | 226 | 1.6 | 11.3 | 0.00 | 0.00 | 0.00 | 63 | 1013.3 |
| 20260905153058 | 32 | 213 | 3.2 | 11.3 | 0.00 | 0.00 | 0.00 | 63 | 1013.2 |
| 20260905152539 | 32 | 287 | 3.2 | 8.0 | 0.00 | 0.00 | 0.00 | 64 | 1013.3 |
| 20260905152039 | 32 | 313 | 3.2 | 11.3 | 0.00 | 0.00 | 0.00 | 65 | 1013.3 |
| 20260905151601 | 31 | 311 | 4.8 | 11.3 | 0.00 | 0.00 | 0.00 | 65 | 1013.3 |
| 20260905151040 | 31 | 313 | 4.8 | 14.5 | 0.00 | 0.00 | 0.00 | 67 | 1013.4 |
| 20260905150539 | 31 | 216 | 4.8 | 14.5 | 0.00 | 0.00 | 0.00 | 66 | 1013.5 |
| 20260905150055 | 31 | 220 | 3.2 | 12.9 | 0.00 | 0.00 | 0.00 | 66 | 1013.5 |
| 20260905145539 | 31 | 312 | 4.8 | 12.9 | 0.00 | 0.00 | 0.00 | 67 | 1013.5 |
| 20260905145039 | 31 | 273 | 1.6 | 8.0 | 0.00 | 0.00 | 0.00 | 68 | 1013.5 |
| 20260905144602 | 30 | 337 | 1.6 | 8.0 | 0.00 | 0.00 | 0.00 | 68 | 1013.5 |
| 20260905144038 | 31 | 271 | 4.8 | 8.0 | 0.00 | 0.00 | 0.00 | 68 | 1013.5 |
| 20260905143539 | 31 | 352 | 3.2 | 6.4 | 0.00 | 0.00 | 0.00 | 70 | 1013.6 |
| 20260905143054 | 30 | 190 | 1.6 | 6.4 | 0.00 | 0.00 | 0.00 | 69 | 1013.5 |
| 20260905142540 | 30 | 317 | 1.6 | 6.4 | 0.00 | 0.00 | 0.00 | 71 | 1013.6 |
| 20260905142043 | 30 | 309 | 3.2 | 8.0 | 0.00 | 0.00 | 0.00 | 71 | 1013.5 |
| 20260905141600 | 29 | 196 | 3.2 | 9.7 | 0.00 | 0.00 | 0.00 | 72 | 1013.5 |
| 20260905141038 | 30 | 223 | 1.6 | 11.3 | 0.00 | 0.00 | 0.00 | 71 | 1013.6 |
| 20260905140539 | 30 | 336 | 3.2 | 11.3 | 0.00 | 0.00 | 0.00 | 72 | 1013.5 |
| 20260905140105 | 29 | 233 | 4.8 | 11.3 | 0.00 | 0.00 | 0.00 | 72 | 1013.6 |
| 20260905135538 | 28 | 329 | 3.2 | 12.9 | 0.00 | 0.00 | 0.00 | 75 | 1013.6 |
| 20260905135038 | 29 | 305 | 6.4 | 14.5 | 0.00 | 0.00 | 0.00 | 74 | 1013.6 |
| 20260905134554 | 28 | 298 | 4.8 | 14.5 | 0.00 | 0.00 | 0.00 | 75 | 1013.5 |
| 20260905134040 | 28 | 306 | 4.8 | 11.3 | 0.00 | 0.00 | 0.00 | 75 | 1013.6 |
| 20260905133540 | 28 | 215 | 3.2 | 11.3 | 0.00 | 0.00 | 0.00 | 75 | 1013.6 |
| 20260905133100 | 28 | 236 | 4.8 | 11.3 | 0.00 | 0.00 | 0.00 | 75 | 1013.6 |
| 20260905132539 | 28 | 290 | 3.2 | 11.3 | 0.00 | 0.00 | 0.00 | 76 | 1013.7 |
| 20260905132039 | 28 | 244 | 3.2 | 11.3 | 0.00 | 0.00 | 0.00 | 77 | 1013.7 |
| 20260905131607 | 27 | 331 | 4.8 | 12.9 | 0.00 | 0.00 | 0.00 | 77 | 1013.7 |
| 20260905131039 | 27 | 205 | 3.2 | 12.9 | 0.00 | 0.00 | 0.00 | 77 | 1013.7 |
| 20260905130540 | 27 | 217 | 3.2 | 11.3 | 0.00 | 0.00 | 0.00 | 79 | 1013.9 |
| 20260905130057 | 27 | 242 | 1.6 | 9.7 | 0.00 | 0.00 | 0.00 | 79 | 1013.9 |
| 20260905125538 | 27 | 238 | 3.2 | 9.7 | 0.00 | 0.00 | 0.00 | 80 | 1013.9 |
| 20260905125038 | 26 | 275 | 4.8 | 9.7 | 0.00 | 0.00 | 0.00 | 80 | 1013.8 |
| 20260905124551 | 26 | 215 | 3.2 | 8.0 | 0.00 | 0.00 | 0.00 | 81 | 1013.9 |
| 20260905124040 | 26 | 275 | 3.2 | 6.4 | 0.00 | 0.00 | 0.00 | 82 | 1013.9 |
| 20260905123540 | 26 | 247 | 1.6 | 6.4 | 0.00 | 0.00 | 0.00 | 82 | 1014.0 |
| 20260905123102 | 26 | 194 | 1.6 | 4.8 | 0.00 | 0.00 | 0.00 | 82 | 1014.0 |
| 20260905122541 | 26 | 315 | 1.6 | 6.4 | 0.00 | 0.00 | 0.00 | 84 | 1014.0 |
| 20260905122044 | 25 | 221 | 3.2 | 8.0 | 0.00 | 0.00 | 0.00 | 85 | 1013.9 |
| 20260905121558 | 25 | 239 | 3.2 | 8.0 | 0.00 | 0.00 | 0.00 | 85 | 1013.9 |
| 20260905121043 | 25 | 221 | 3.2 | 4.8 | 0.00 | 0.00 | 0.00 | 86 | 1013.9 |
| 20260905120540 | 25 | 213 | 1.6 | 4.8 | 0.00 | 0.00 | 0.00 | 87 | 1013.9 |
| 20260905120056 | 24 | 228 | 0.0 | 3.2 | 0.00 | 0.00 | 0.00 | 89 | 1013.9 |
| 20260905115540 | 23 | 236 | 1.6 | 3.2 | 0.00 | 0.00 | 0.00 | 89 | 1013.8 |
| 20260905115041 | 23 | 290 | 0.0 | 3.2 | 0.00 | 0.00 | 0.00 | 91 | 1013.8 |
| 20260905114600 | 23 | 0 | 0.0 | 3.2 | 0.00 | 0.00 | 0.00 | 92 | 1013.7 |
| 20260905114041 | 22 | 0 | 0.0 | 3.2 | 0.00 | 0.00 | 0.00 | 92 | 1013.6 |
| 20260905113541 | 22 | 0 | 0.0 | 3.2 | 0.00 | 0.00 | 0.00 | 92 | 1013.7 |
| 20260905113056 | 22 | 173 | 0.0 | 3.2 | 0.00 | 0.00 | 0.00 | 92 | 1013.5 |
| 20260905112541 | 22 | 0 | 0.0 | 0.0 | 0.00 | 0.00 | 0.00 | 92 | 1013.5 |
| 20260905112039 | 22 | 0 | 0.0 | 0.0 | 0.00 | 0.00 | 0.00 | 92 | 1013.4 |
| 20260905111604 | 22 | 0 | 0.0 | 0.0 | 0.00 | 0.00 | 0.00 | 92 | 1013.3 |
| 20260905111040 | 22 | 0 | 0.0 | 3.2 | 0.00 | 0.00 | 0.00 | 92 | 1013.2 |
| 20260905110539 | 22 | 0 | 0.0 | 3.2 | 0.00 | 0.00 | 0.00 | 92 | 1013.0 |
| 20260905110058 | 22 | 173 | 0.0 | 1.6 | 0.00 | 0.00 | 0.00 | 92 | 1013.0 |
| 20260905105539 | 22 | 173 | 1.6 | 3.2 | 0.00 | 0.00 | 0.00 | 92 | 1012.9 |
| 20260905105040 | 22 | 173 | 0.0 | 3.2 | 0.00 | 0.00 | 0.00 | 92 | 1012.9 |
| 20260905104610 | 22 | 173 | 0.0 | 3.2 | 0.00 | 0.00 | 0.00 | 92 | 1012.8 |
| 20260905104042 | 22 | 0 | 0.0 | 3.2 | 0.00 | 0.00 | 0.00 | 92 | 1012.7 |
| 20260905103539 | 22 | 173 | 0.0 | 1.6 | 0.00 | 0.00 | 0.00 | 92 | 1012.6 |
| 20260905103056 | 22 | 173 | 0.0 | 1.6 | 0.00 | 0.00 | 0.00 | 92 | 1012.6 |
| 20260905102540 | 22 | 173 | 1.6 | 3.2 | 0.00 | 0.00 | 0.00 | 92 | 1012.6 |
| 20260905102039 | 22 | 173 | 1.6 | 3.2 | 0.00 | 0.00 | 0.00 | 92 | 1012.6 |
| 20260905101557 | 22 | 166 | 0.0 | 3.2 | 0.00 | 0.00 | 0.00 | 92 | 1012.6 |
| 20260905101040 | 22 | 0 | 0.0 | 3.2 | 0.00 | 0.00 | 0.00 | 92 | 1012.7 |
| 20260905100539 | 22 | 138 | 0.0 | 3.2 | 0.00 | 0.00 | 0.00 | 91 | 1012.7 |
| 20260905100058 | 22 | 0 | 0.0 | 3.2 | 0.00 | 0.00 | 0.00 | 91 | 1012.7 |
| 20260905095540 | 22 | 0 | 0.0 | 3.2 | 0.00 | 0.00 | 0.00 | 91 | 1012.7 |
| 20260905095039 | 22 | 138 | 0.0 | 1.6 | 0.00 | 0.00 | 0.00 | 91 | 1012.6 |
| 20260905094553 | 22 | 138 | 0.0 | 1.6 | 0.00 | 0.00 | 0.00 | 91 | 1012.7 |
| 20260905094039 | 22 | 138 | 0.0 | 1.6 | 0.00 | 0.00 | 0.00 | 91 | 1012.7 |
| 20260905093540 | 22 | 138 | 1.6 | 1.6 | 0.00 | 0.00 | 0.00 | 91 | 1012.7 |